Regional Weather Roundup
Issued by NWS

Home | Current Version | Previous Version | Graphics & Text | Print | Product List | Glossary On
Versions: 1 2 3 4 5 6 7 8 9 10 11 12 13 14 15 16 17 18 19 20 21 22 23 24 25 26 27 28 29 30 31 32 33 34 35 36 37 38 39 40 41 42 43 44 45 46 47 48 49 50
000
ASUS43 KLOT 231808
RWRIL

ILLINOIS REGIONAL WEATHER ROUNDUP
NATIONAL WEATHER SERVICE CHICAGO/ROMEOVILLE IL
1200 PM CST THU FEB 23 2017

NOTE: "FAIR" INDICATES FEW OR NO CLOUDS BELOW 12,000 FEET WITH NO
SIGNIFICANT WEATHER AND/OR OBSTRUCTIONS TO VISIBILITY.

* THESE STATIONS ARE NOT UNDER NWS QUALITY CONTROL. THEY ALSO MAY NOT
  REPORT WEATHER SUCH AS PRECIPITATION OR FOG.

ILZ001-002-007-009-015-016-024-231900-
NORTHWEST ILLINOIS

CITY           SKY/WX    TMP DP  RH WIND       PRES   REMARKS
MOLINE         CLOUDY    48  41  76 N9        29.78F
STERLING*      CLOUDY    49  42  77 E9        29.80S
SAVANNA*       CLOUDY    46  38  75 NE8       29.82F
$$

ILZ003-004-008-010-011-017-018-231900-
NORTH CENTRAL ILLINOIS

CITY           SKY/WX    TMP DP  RH WIND       PRES   REMARKS
ROCKFORD       CLOUDY    47  39  74 NE10      29.81F
6HR MIN TEMP:  40; 6HR MAX TEMP:  50;

FREEPORT*      CLOUDY    44  38  82 NE7       29.85R
ROCHELLE*      CLOUDY    48  42  79 NE12      29.80S
DE KALB*       CLOUDY    49  41  74 NE10      29.81S
PERU*          CLOUDY    49  42  76 NE10      29.79R
$$

ILZ005-006-012>014-019>023-231900-
NORTHEAST ILLINOIS

CITY           SKY/WX    TMP DP  RH WIND       PRES   REMARKS
CHICAGO-OHARE  CLOUDY    44  37  76 NE15      29.82F
6HR MIN TEMP:  44; 6HR MAX TEMP:  52;

CHICAGO-MIDWAY CLOUDY    46  38  73 NE14      29.82F
6HR MIN TEMP:  46; 6HR MAX TEMP:  54;

AURORA         CLOUDY    51  41  68 NE18      29.79F
6HR MIN TEMP:  38; 6HR MAX TEMP:  53;

LANSING*       CLOUDY    47  42  84 NE13G18   29.83F
JOLIET*        CLOUDY    54  44  69 NE12G20   29.79F
WAUKEGAN       CLOUDY    41  36  82 NE9       29.85R
6HR MIN TEMP:  40; 6HR MAX TEMP:  47;

DUPAGE AIRPORT CLOUDY    44  36  73 NE17      29.80F
6HR MIN TEMP:  40; 6HR MAX TEMP:  52;

KANKAKEE*      CLOUDY    54  44  67 NE9       29.79F
WHEELING       CLOUDY    41  34  76 NE16G22   29.83F
6HR MIN TEMP:  41; 6HR MAX TEMP:  51;

MORRIS*        CLOUDY    54  43  66 E8        29.77F
ROMEOVILLE*    CLOUDY    49  44  80 NE15      29.79F
NORTHERLY ISL    N/A     41  37  86 N14         N/A
$$

LMZ740>746-231900-
SOUTHERN LAKE MICHIGAN

STATION/POSITION SKY/WX   TEMP    WIND        PRES    VSBY  WAVE
                          AIR SEA DIR/SP/G                  HT/PER
                          (F)     (DEG/KT/KT) (MB)    (MI)  (FT/S)
HARRISON CRIB              39     360/ 11/ 11   N/A
BURNHAM HARBOR             41     340/ 10/ 12   N/A
CALUMET HARBOR             42     360/  7/ 13 1009.9F
BURNS HARBOR               39     360/ 10/ 12 1011.2R
MICHIGAN CITY              39     340/  9/  9   N/A
$$

ILZ025>027-034>036-040-047-049-050-058-095>099-231900-
WEST-CENTRAL ILLINOIS

CITY           SKY/WX    TMP DP  RH WIND       PRES   REMARKS
QUINCY         CLOUDY    48  44  86 NE9       29.74F
GALESBURG*     LGT RAIN  46  43  89 N17       29.74F
MACOMB*        CLOUDY    48  45  88 NE10      29.78F
JACKSONVILLE*  CLOUDY    52  48  86 NE13      29.71F
PITTSFIELD*    CLOUDY    52  48  85 N8        29.74S
$$

ILZ028>032-037-038-041>044-048-051>054-059>061-231900-
CENTRAL ILLINOIS

CITY           SKY/WX    TMP DP  RH WIND       PRES   REMARKS
PONTIAC        CLOUDY    55  48  78 NE14      29.77F
BLOOMINGTON    CLOUDY    53  47  79 NE13      29.76F
DECATUR        CLOUDY    59  53  80 NE9       29.73F
PEORIA         CLOUDY    51  45  79 NE8       29.76F
6HR MIN TEMP:  43; 6HR MAX TEMP:  51;

LACON*         CLOUDY    50  44  78 NE5       29.78S
LINCOLN*       MOSUNNY   56  50  80 NE10      29.74F
SPRINGFIELD    CLOUDY    58  50  75 NE14      29.73F
6HR MIN TEMP:  45; 6HR MAX TEMP:  58;

TAYLORVILLE    CLOUDY    58  56  92 NE5       29.72F
6HR MIN TEMP:  44; 6HR MAX TEMP:  58;

$$

ILZ033-039-045-046-055>057-062-063-231900-
EAST-CENTRAL ILLINOIS

CITY           SKY/WX    TMP DP  RH WIND       PRES   REMARKS
CHAMPAIGN      CLOUDY    58  52  80 NE5       29.75F
RANTOUL*       CLOUDY    60  54  80 E3        29.75F
MATTOON        CLOUDY    64  56  75 S10       29.72F
PARIS*         CLOUDY    62  57  83 S8        29.74F
$$

ILZ079-100>102-231900-
SOUTHWEST ILLINOIS

CITY           SKY/WX    TMP DP  RH WIND       PRES   REMARKS
ALTON          MOSUNNY   64  54  68 SE6         N/A
BELLEVILLE     SUNNY     69  58  68 E12       29.69F
CAHOKIA*       SUNNY     69  54  58 SE7       29.68F
SPARTA*        CLOUDY    61  56  81 S12       29.73F
$$

ILZ064>066-069>071-074>076-080>082-084>086-088>090-092>094-231900-
SOUTH-CENTRAL ILLINOIS

CITY           SKY/WX    TMP DP  RH WIND       PRES   REMARKS
CARBONDALE     CLOUDY    65  57  75 S17G24    29.73F
6HR MIN TEMP:  54; 6HR MAX TEMP:  65;

CAIRO*         PTSUNNY   68  58  71 S14       29.75F
EFFINGHAM*     MOSUNNY   68  57  68 S8        29.73F
MARION         CLOUDY    68  59  73 SW12      29.75F
MT. VERNON     CLOUDY    65  56  72 S13       29.74F
CENTRALIA*     CLOUDY    65  56  74 S16G22    29.72F
SALEM*         CLOUDY    65  55  70 S14       29.73F
METROPOLIS*    PTSUNNY   71  58  63 S10G16    29.76F
$$

ILZ067-068-072-073-078-083-087-091-231900-
SOUTHEAST ILLINOIS

CITY           SKY/WX    TMP DP  RH WIND       PRES   REMARKS
LAWRENCEVILLE  CLOUDY    67  57  70 SW15      29.75F
FLORA*         CLOUDY    66  57  71 SW15      29.75F
FAIRFIELD*     CLOUDY    66  57  71 SW5       29.73F
HARRISBURG*    CLOUDY    67  56  68 SW13      29.74F
ROBINSON*      PTSUNNY   67  57  68 S14       29.75F
CARMI*         CLOUDY    67  58  72 S15       29.75F
$$

ABBREVIATIONS USED IN REMARKS
   TC - TEMPERATURE IN CELSIUS
  WCI - WIND CHILL INDEX
   HX - HEAT INDEX
  VSB - VISIBILITY
$$




USA.gov is the U.S. government's official web portal to all federal, state and local government web resources and services.